Time[GMT],salinity[psu](20m),sigma_t[kg/m^3](20m),conductivity[msiemens/cm](20m),temperature[C](20m)
2020-11-08 00:00,32.644,24.780,37.481,11.89
2020-11-08 01:00,32.579,24.728,37.423,11.90
2020-11-08 02:00,32.400,24.617,37.104,11.75
2020-11-08 03:00,32.448,24.660,37.126,11.72
2020-11-08 04:00,32.360,24.579,37.099,11.79
2020-11-08 05:00,32.352,24.563,37.135,11.84
2020-11-08 06:00,32.356,24.564,37.148,11.85
2020-11-08 07:00,32.381,24.571,37.237,11.92
2020-11-08 08:00,32.723,24.694,38.272,12.67
2020-11-08 09:00,33.100,24.844,39.332,13.39
2020-11-08 10:00,33.076,24.837,39.251,13.33
2020-11-08 11:00,32.986,24.814,38.943,13.10
2020-11-08 12:00,32.708,24.734,38.010,12.40
2020-11-08 13:00,32.439,24.614,37.306,11.93
2020-11-08 14:00,32.456,24.661,37.162,11.75
2020-11-08 15:00,32.383,24.607,37.068,11.73
2020-11-08 16:00,32.321,24.558,37.014,11.74
2020-11-08 17:00,32.302,24.606,36.681,11.39
2020-11-08 18:00,32.394,24.647,36.927,11.56
2020-11-08 19:00,32.826,24.776,38.371,12.66
2020-11-08 20:00,33.119,24.881,39.251,13.28
2020-11-08 21:00,33.114,24.865,39.301,13.34
2020-11-08 22:00,33.052,24.835,39.152,13.25
2020-11-08 23:00,32.981,24.800,38.984,13.15
2020-11-09 00:00,32.689,24.683,38.163,12.59
2020-11-09 01:00,32.398,24.601,37.174,11.83
2020-11-09 02:00,32.322,24.624,36.693,11.38
2020-11-09 03:00,32.307,24.610,36.686,11.39
2020-11-09 04:00,32.329,24.624,36.727,11.41
2020-11-09 05:00,32.358,24.654,36.721,11.37
2020-11-09 06:00,32.433,24.719,36.761,11.33
2020-11-09 07:00,32.465,24.740,36.812,11.35
2020-11-09 08:00,32.806,24.768,38.313,12.62
2020-11-09 09:00,33.184,24.897,39.478,13.45
2020-11-09 10:00,33.173,24.906,39.382,13.36
2020-11-09 11:00,33.181,24.911,39.400,13.37
2020-11-09 12:00,32.729,24.753,38.023,12.39
2020-11-09 13:00,32.302,24.598,36.726,11.44
2020-11-09 14:00,32.350,24.642,36.739,11.40
2020-11-09 15:00,32.319,24.567,36.958,11.68
2020-11-09 16:00,32.287,24.556,36.853,11.60
2020-11-09 17:00,32.348,24.618,36.844,11.52
2020-11-09 18:00,32.410,24.676,36.863,11.47
2020-11-09 19:00,32.475,24.732,36.903,11.44
2020-11-09 20:00,32.871,24.799,38.473,12.72
2020-11-09 21:00,33.213,24.906,39.574,13.52
2020-11-09 22:00,33.354,24.953,40.004,13.82
2020-11-09 23:00,33.425,24.977,40.221,13.97
2020-11-10 00:00,33.248,24.929,39.630,13.54
2020-11-10 01:00,32.591,24.773,37.264,11.71
2020-11-10 02:00,32.445,24.696,36.935,11.51
2020-11-10 03:00,32.402,24.648,36.962,11.59
2020-11-10 04:00,,,,
2020-11-10 05:00,32.293,24.527,37.030,11.79
2020-11-10 06:00,32.267,24.484,37.110,11.91
2020-11-10 07:00,32.314,24.567,36.935,11.66
2020-11-10 08:00,32.886,24.842,38.342,12.56
2020-11-10 09:00,33.199,24.921,39.438,13.39
2020-11-10 10:00,33.406,24.933,40.332,14.11
2020-11-10 11:00,33.419,24.962,40.262,14.02
2020-11-10 12:00,33.321,24.936,39.931,13.78
2020-11-10 13:00,33.178,24.923,39.332,13.30
2020-11-10 14:00,32.546,24.695,37.425,11.94
2020-11-10 15:00,32.427,24.662,37.015,11.62
2020-11-10 16:00,32.373,24.626,36.933,11.59
2020-11-10 17:00,32.371,24.622,36.940,11.60
2020-11-10 18:00,32.427,24.665,36.997,11.60
2020-11-10 19:00,32.586,24.774,37.232,11.68
2020-11-10 20:00,33.499,24.984,40.527,14.21
2020-11-10 21:00,33.315,24.921,39.972,13.83
2020-11-10 22:00,33.414,24.954,40.275,14.04
2020-11-10 23:00,33.459,24.974,40.389,14.11
2020-11-11 00:00,33.602,25.058,40.667,14.24
2020-11-11 01:00,33.537,25.011,40.577,14.22
2020-11-11 02:00,33.337,24.948,39.949,13.78
2020-11-11 03:00,32.443,24.627,37.265,11.88
2020-11-11 04:00,32.412,24.626,37.116,11.75
2020-11-11 05:00,32.390,24.604,37.121,11.78
2020-11-11 06:00,32.511,24.723,37.119,11.64
2020-11-11 07:00,32.597,24.772,37.298,11.74
2020-11-11 08:00,33.011,24.855,38.869,12.99
2020-11-11 09:00,33.573,25.016,40.720,14.33
2020-11-11 10:00,33.479,24.996,40.383,14.08
2020-11-11 11:00,33.441,24.990,40.239,13.97
2020-11-11 12:00,33.395,24.970,40.114,13.89
2020-11-11 13:00,33.447,24.998,40.226,13.95
2020-11-11 14:00,33.381,24.990,39.958,13.74
2020-11-11 15:00,33.341,24.935,40.028,13.86
2020-11-11 16:00,32.616,24.735,37.570,12.02
2020-11-11 17:00,32.508,24.717,37.134,11.66
2020-11-11 18:00,32.496,24.681,37.257,11.81
2020-11-11 19:00,32.574,24.745,37.319,11.79
2020-11-11 20:00,32.951,24.826,38.722,12.90
2020-11-11 21:00,33.332,24.936,39.981,13.82
2020-11-11 22:00,33.271,24.936,39.701,13.59
2020-11-11 23:00,33.275,24.961,39.602,13.48
2020-11-12 00:00,33.212,24.985,39.201,13.12
2020-11-12 01:00,33.149,24.950,39.070,13.05
2020-11-12 02:00,33.227,24.937,39.496,13.42
2020-11-12 03:00,33.448,25.007,40.190,13.91
2020-11-12 04:00,33.078,24.825,39.318,13.40
2020-11-12 05:00,33.369,24.957,40.058,13.86
2020-11-12 06:00,33.256,24.898,39.806,13.72
2020-11-12 07:00,33.260,24.905,39.791,13.70
2020-11-12 08:00,32.752,24.687,38.439,12.82
2020-11-12 09:00,32.920,24.767,38.855,13.08
2020-11-12 10:00,33.031,24.829,39.083,13.20
2020-11-12 11:00,32.924,24.798,38.731,12.94
2020-11-12 12:00,32.852,24.752,38.609,12.89
2020-11-12 13:00,33.060,24.903,38.874,12.94
2020-11-12 14:00,33.017,24.820,39.059,13.19
2020-11-12 15:00,33.142,24.951,39.035,13.02
2020-11-12 16:00,33.300,24.940,39.816,13.68
2020-11-12 17:00,32.763,24.676,38.542,12.92
2020-11-12 18:00,33.212,24.901,39.591,13.54
2020-11-12 19:00,33.272,24.925,39.758,13.65
2020-11-12 20:00,33.177,24.881,39.516,13.50
2020-11-12 21:00,32.791,24.687,38.627,12.98
2020-11-12 22:00,33.051,24.848,39.086,13.18
2020-11-12 23:00,32.767,24.697,38.464,12.83
2020-11-13 00:00,33.500,24.964,40.622,14.31
2020-11-13 01:00,33.443,24.949,40.428,14.17
2020-11-13 02:00,32.924,24.744,38.979,13.21
2020-11-13 03:00,33.340,24.909,40.139,13.98
2020-11-13 04:00,32.878,24.778,38.609,12.86
2020-11-13 05:00,32.866,24.719,38.825,13.11
2020-11-13 06:00,32.826,24.704,38.710,13.03
2020-11-13 07:00,32.878,24.728,38.838,13.11
2020-11-13 08:00,32.909,24.740,38.926,13.17
2020-11-13 09:00,32.879,24.733,38.821,13.09
2020-11-13 10:00,32.947,24.754,39.040,13.25
2020-11-13 11:00,32.943,24.751,39.036,13.25
2020-11-13 12:00,33.022,24.788,39.231,13.37
2020-11-13 13:00,33.053,24.808,39.282,13.39
2020-11-13 14:00,33.053,24.808,39.282,13.39
2020-11-13 15:00,33.312,24.933,39.903,13.76
2020-11-13 16:00,33.391,24.969,40.100,13.88
2020-11-13 17:00,32.897,24.741,38.867,13.12
2020-11-13 18:00,32.593,24.615,38.036,12.56
2020-11-13 19:00,32.618,24.668,37.898,12.38
2020-11-13 20:00,32.882,24.720,38.898,13.17
2020-11-13 21:00,32.660,24.665,38.115,12.57
2020-11-13 22:00,32.901,24.740,38.890,13.14
2020-11-13 23:00,33.165,24.852,39.596,13.60
2020-11-14 00:00,33.237,24.865,39.869,13.81
2020-11-14 01:00,33.289,24.880,40.037,13.93
2020-11-14 02:00,33.305,24.886,40.082,13.96
2020-11-14 03:00,33.628,24.988,41.092,14.66
2020-11-14 04:00,33.984,25.073,42.316,15.53
2020-11-14 05:00,33.119,24.847,39.408,13.45
2020-11-14 06:00,32.851,24.725,38.727,13.02
2020-11-14 07:00,32.538,24.612,37.788,12.35
2020-11-14 08:00,32.494,24.591,37.678,12.28
2020-11-14 09:00,32.675,24.657,38.222,12.67
2020-11-14 10:00,32.920,24.793,38.736,12.95
2020-11-14 11:00,32.964,24.769,39.049,13.24
2020-11-14 12:00,33.251,24.872,39.903,13.83
2020-11-14 13:00,33.055,24.840,39.146,13.24
2020-11-14 14:00,33.011,24.795,39.145,13.29
2020-11-14 15:00,32.923,24.753,38.932,13.16
2020-11-14 16:00,33.232,24.999,39.232,13.13
2020-11-14 17:00,33.277,24.981,39.521,13.39
2020-11-14 18:00,33.134,24.856,39.433,13.46
2020-11-14 19:00,32.990,24.805,39.003,13.16
2020-11-14 20:00,,,,
2020-11-14 21:00,32.958,24.824,38.767,12.94
2020-11-14 22:00,33.070,24.861,39.116,13.19
2020-11-14 23:00,33.274,24.906,39.853,13.75
2020-11-15 00:00,32.824,24.679,38.818,13.15
2020-11-15 01:00,32.078,24.446,36.381,11.31
2020-11-15 02:00,32.480,24.666,37.249,11.82
2020-11-15 03:00,32.403,24.641,36.999,11.63
2020-11-15 04:00,33.085,24.843,39.270,13.34
2020-11-15 05:00,33.082,24.916,38.916,12.96
2020-11-15 06:00,,,,
2020-11-15 07:00,32.986,24.818,38.925,13.08
2020-11-15 08:00,32.978,24.810,38.926,13.09
2020-11-15 09:00,33.054,24.855,39.071,13.16
2020-11-15 10:00,33.118,24.878,39.259,13.29
2020-11-15 11:00,32.852,24.755,38.590,12.87
2020-11-15 12:00,32.953,24.845,38.642,12.81
2020-11-15 13:00,31.999,24.416,36.151,11.14
2020-11-15 14:00,32.040,24.453,36.166,11.11
2020-11-15 15:00,31.978,24.403,36.112,11.12
2020-11-15 16:00,32.410,24.808,36.193,10.72
2020-11-15 17:00,33.183,25.248,37.799,11.63
2020-11-15 18:00,32.759,24.801,37.936,12.26
2020-11-15 19:00,32.283,24.519,37.019,11.79
2020-11-15 20:00,32.966,24.854,38.665,12.82
2020-11-15 21:00,32.942,24.821,38.704,12.89
2020-11-15 22:00,32.915,24.831,38.528,12.73
2020-11-15 23:00,32.937,24.825,38.662,12.85
2020-11-16 00:00,32.517,24.660,37.459,12.01
2020-11-16 01:00,31.994,24.417,36.119,11.11
2020-11-16 02:00,31.915,24.326,36.189,11.28
2020-11-16 03:00,32.180,24.533,36.450,11.27
2020-11-16 04:00,,,,
2020-11-16 05:00,33.724,25.112,40.979,14.43
2020-11-16 07:00,32.395,24.524,37.530,12.23
2020-11-16 08:00,32.708,24.687,38.238,12.65
2020-11-16 09:00,,,,
2020-11-16 10:00,32.758,24.774,38.063,12.40
2020-11-16 12:00,32.684,24.729,37.922,12.33
2020-11-16 13:00,32.360,24.581,37.090,11.78
2020-11-16 14:00,32.291,24.503,37.135,11.91
2020-11-16 15:00,32.465,24.555,37.711,12.35
2020-11-16 16:00,32.655,24.638,38.219,12.69
2020-11-16 17:00,32.770,24.671,38.605,12.98
2020-11-16 18:00,33.286,24.955,39.679,13.55
2020-11-16 19:00,33.956,25.146,41.872,15.10
2020-11-16 20:00,32.620,24.624,38.118,12.62
2020-11-16 21:00,32.384,24.546,37.375,12.07
2020-11-16 23:00,32.299,24.528,37.054,11.81
2020-11-17 00:00,32.444,24.558,37.599,12.25
2020-11-17 01:00,32.365,24.529,37.364,12.08
2020-11-17 02:00,33.680,25.039,41.102,14.61
2020-11-17 03:00,32.405,24.560,37.406,12.08
2020-11-17 04:00,32.187,24.545,36.421,11.23
2020-11-17 05:00,32.167,24.527,36.419,11.25
2020-11-17 06:00,32.168,24.529,36.411,11.24
2020-11-17 07:00,32.152,24.515,36.404,11.25
2020-11-17 08:00,32.104,24.478,36.355,11.25
2020-11-17 09:00,32.435,24.639,37.167,11.78
2020-11-17 10:00,32.765,24.727,38.316,12.67
2020-11-17 11:00,,,,
2020-11-17 12:00,32.897,24.762,38.766,13.01
2020-11-17 13:00,32.175,24.523,36.471,11.30
2020-11-17 14:00,32.136,24.530,36.245,11.09
2020-11-17 15:00,32.128,24.530,36.211,11.06
2020-11-17 16:00,32.087,24.510,36.107,10.99
2020-11-17 17:00,32.074,24.491,36.138,11.04
2020-11-17 18:00,32.047,24.475,36.084,11.01
2020-11-17 19:00,32.087,24.507,36.125,11.01
2020-11-17 20:00,32.125,24.534,36.172,11.02
2020-11-17 21:00,32.092,24.520,36.086,10.96
2020-11-17 22:00,31.984,24.441,35.950,10.93
2020-11-17 23:00,31.976,24.433,35.951,10.94
2020-11-18 00:00,32.130,24.570,36.018,10.84
2020-11-18 01:00,32.105,24.528,36.108,10.97
2020-11-18 02:00,32.071,24.501,36.073,10.97
2020-11-18 03:00,32.120,24.532,36.158,11.01
2020-11-18 04:00,32.218,24.608,36.257,11.01
2020-11-18 05:00,32.237,24.622,36.286,11.02
2020-11-18 06:00,32.264,24.646,36.295,11.00
2020-11-18 07:00,32.398,24.757,36.395,10.96
2020-11-18 08:00,32.395,24.748,36.428,11.00
2020-11-18 09:00,32.348,24.718,36.344,10.96
2020-11-18 10:00,32.219,24.618,36.214,10.96
2020-11-18 11:00,32.207,24.615,36.166,10.92
2020-11-18 12:00,32.225,24.632,36.176,10.91
2020-11-18 13:00,32.256,24.661,36.180,10.88
2020-11-18 14:00,32.236,24.637,36.205,10.93
2020-11-18 15:00,32.036,24.468,36.064,11.00
2020-11-18 16:00,32.029,24.442,36.163,11.12
2020-11-18 17:00,32.153,24.535,36.307,11.14
2020-11-18 18:00,31.990,24.366,36.354,11.38
2020-11-18 19:00,,,,
2020-11-18 21:00,31.798,24.254,35.973,11.17
2020-11-18 22:00,31.828,24.291,35.933,11.09
2020-11-18 23:00,32.006,24.440,36.060,11.03
2020-11-19 00:00,32.172,24.582,36.167,10.96
2020-11-19 01:00,32.207,24.610,36.193,10.95
2020-11-19 02:00,32.132,24.570,36.029,10.85
2020-11-19 03:00,32.176,24.604,36.073,10.85
2020-11-19 04:00,32.074,24.485,36.174,11.08
2020-11-19 05:00,32.115,24.574,35.923,10.75
2020-11-19 06:00,32.210,24.639,36.063,10.80
2020-11-19 07:00,32.349,24.632,36.783,11.45
2020-11-19 08:00,32.233,24.625,36.246,10.98
2020-11-19 09:00,32.209,24.600,36.257,11.02
2020-11-19 10:00,32.104,24.546,36.009,10.86
2020-11-19 11:00,32.014,24.448,36.060,11.02
2020-11-19 12:00,32.736,24.703,38.295,12.68
2020-11-19 13:00,32.761,24.804,37.929,12.25
2020-11-19 14:00,32.408,24.757,36.450,11.01
2020-11-19 15:00,32.012,24.481,35.881,10.82
2020-11-19 16:00,32.266,24.671,36.182,10.87
2020-11-19 17:00,32.267,24.706,36.005,10.67
2020-11-19 18:00,32.308,24.743,36.020,10.64
2020-11-19 19:00,32.326,24.750,36.073,10.68
2020-11-19 20:00,32.298,24.727,36.054,10.69
2020-11-19 21:00,32.296,24.734,36.008,10.64
2020-11-19 22:00,32.270,24.706,36.017,10.68
2020-11-19 23:00,32.377,24.729,36.436,11.03
2020-11-20 00:00,32.251,24.669,36.113,10.81
2020-11-20 01:00,32.149,24.598,35.966,10.76
2020-11-20 02:00,32.398,24.726,36.556,11.14
2020-11-20 03:00,32.240,24.664,36.084,10.79
2020-11-20 04:00,32.370,24.720,36.447,11.05
2020-11-20 05:00,32.279,24.719,36.000,10.65
2020-11-20 06:00,32.368,24.755,36.258,10.84
2020-11-20 07:00,32.439,24.763,36.570,11.11
2020-11-20 08:00,32.551,24.831,36.783,11.22
2020-11-20 09:00,32.640,24.910,36.819,11.16
2020-11-20 10:00,32.472,24.775,36.676,11.19
2020-11-20 11:00,32.371,24.758,36.261,10.84
2020-11-20 12:00,32.356,24.743,36.264,10.86
2020-11-20 13:00,32.298,24.714,36.116,10.76
2020-11-20 14:00,,,,
2020-11-20 15:00,32.279,24.721,35.991,10.64
2020-11-20 16:00,32.447,24.775,36.552,11.08
2020-11-20 17:00,32.458,24.793,36.509,11.02
2020-11-20 18:00,32.459,24.791,36.528,11.04
2020-11-20 19:00,32.458,24.785,36.554,11.07
2020-11-20 20:00,32.814,24.924,37.602,11.83
2020-11-20 21:00,33.106,25.022,38.527,12.51
2020-11-20 22:00,32.658,24.836,37.279,11.65
2020-11-20 23:00,32.699,24.840,37.457,11.80
2020-11-21 00:00,32.687,24.827,37.462,11.82
2020-11-21 01:00,32.658,24.819,37.360,11.74
2020-11-21 02:00,32.598,24.811,37.109,11.53
2020-11-21 03:00,32.568,24.784,37.097,11.55
2020-11-21 04:00,32.639,24.819,37.268,11.66
2020-11-21 05:00,32.693,24.839,37.432,11.78
2020-11-21 06:00,32.765,24.897,37.497,11.77
2020-11-21 07:00,32.753,24.897,37.440,11.72
2020-11-21 08:00,33.412,25.134,39.441,13.15
2020-11-21 09:00,33.021,24.979,38.328,12.39
2020-11-21 10:00,33.112,25.042,38.459,12.43
2020-11-21 11:00,,,,
2020-11-21 12:00,33.141,25.068,38.471,12.41
2020-11-21 13:00,32.933,24.968,37.962,12.09
2020-11-21 14:00,32.995,24.984,38.182,12.26
2020-11-21 15:00,32.764,24.902,37.469,11.74
2020-11-21 16:00,32.684,24.858,37.297,11.64
2020-11-21 17:00,32.810,24.926,37.571,11.80
2020-11-21 18:00,33.093,25.035,38.403,12.39
2020-11-21 19:00,33.277,25.098,38.973,12.80
2020-11-21 20:00,33.041,25.025,38.202,12.23
2020-11-21 21:00,33.151,25.041,38.647,12.59
2020-11-21 22:00,33.168,25.053,38.674,12.60
2020-11-21 23:00,33.138,25.039,38.597,12.55
2020-11-22 00:00,33.155,25.043,38.661,12.60
2020-11-22 01:00,33.280,25.097,38.995,12.82
2020-11-22 02:00,33.401,25.202,39.066,12.76
2020-11-22 03:00,33.374,25.170,39.094,12.82
2020-11-22 04:00,33.351,25.153,39.060,12.81
2020-11-22 05:00,33.210,25.070,38.792,12.68
2020-11-22 06:00,33.125,25.043,38.519,12.48
2020-11-22 07:00,32.982,24.993,38.077,12.16
2020-11-22 08:00,32.856,24.929,37.782,11.98
2020-11-22 09:00,33.019,24.981,38.307,12.37
2020-11-22 10:00,32.967,24.972,38.107,12.21
2020-11-22 11:00,33.066,25.006,38.411,12.43
2020-11-22 12:00,33.113,25.021,38.561,12.54
2020-11-22 13:00,33.205,25.046,38.879,12.78
2020-11-22 14:00,33.244,25.069,38.957,12.82
2020-11-22 15:00,33.233,25.066,38.918,12.79
2020-11-22 16:00,33.212,25.061,38.840,12.73
2020-11-22 17:00,32.722,24.893,37.308,11.61
2020-11-22 18:00,32.977,24.973,38.144,12.24
2020-11-22 19:00,32.923,24.999,37.760,11.88
2020-11-22 20:00,32.865,24.988,37.537,11.70
2020-11-22 21:00,32.796,24.960,37.339,11.56
2020-11-22 22:00,32.918,24.992,37.773,11.90
2020-11-22 23:00,32.547,24.842,36.707,11.14
2020-11-23 00:00,32.418,24.825,36.148,10.66
2020-11-23 01:00,32.605,24.858,36.909,11.30
2020-11-23 02:00,32.953,24.985,37.973,12.08
2020-11-23 03:00,32.799,24.916,37.569,11.81
2020-11-23 04:00,32.796,24.917,37.547,11.79
2020-11-23 05:00,32.806,24.921,37.576,11.81
2020-11-23 06:00,32.703,24.887,37.244,11.56
2020-11-23 07:00,32.697,24.877,37.265,11.59
2020-11-23 08:00,32.761,24.930,37.312,11.57
2020-11-23 09:00,32.568,24.890,36.567,10.96
2020-11-23 10:00,32.567,24.896,36.530,10.92
2020-11-23 11:00,32.519,24.873,36.410,10.84
2020-11-23 12:00,32.568,24.886,36.585,10.98
2020-11-23 13:00,32.484,24.854,36.330,10.79
2020-11-23 14:00,32.603,24.889,36.746,11.12
2020-11-23 15:00,32.780,24.923,37.440,11.69
2020-11-23 16:00,32.857,24.944,37.710,11.90
2020-11-23 17:00,32.879,24.956,37.760,11.93
2020-11-23 18:00,32.864,24.959,37.672,11.85
2020-11-23 19:00,32.729,24.900,37.307,11.60
2020-11-23 20:00,32.556,24.864,36.635,11.05
2020-11-23 21:00,32.485,24.845,36.385,10.85
2020-11-23 22:00,32.518,24.835,36.597,11.05
2020-11-23 23:00,32.507,24.842,36.505,10.96
2020-11-24 00:00,32.528,24.853,36.553,10.99
2020-11-24 01:00,32.512,24.867,36.403,10.84
2020-11-24 02:00,,,,
2020-11-24 03:00,32.619,24.876,36.888,11.26
2020-11-24 04:00,32.715,24.887,37.301,11.61
2020-11-24 05:00,32.754,24.898,37.441,11.72
2020-11-24 06:00,32.683,24.884,37.160,11.49
2020-11-24 07:00,32.642,24.874,37.010,11.37
2020-11-24 08:00,32.583,24.876,36.707,11.10
2020-11-24 09:00,32.734,24.942,37.122,11.39
2020-11-24 10:00,32.813,24.954,37.447,11.66
2020-11-24 11:00,32.939,24.981,37.922,12.04
2020-11-24 12:00,33.074,25.047,38.254,12.25
2020-11-24 13:00,,,,
2020-11-24 14:00,33.118,25.077,38.318,12.27
2020-11-24 15:00,33.118,25.087,38.273,12.22
2020-11-24 16:00,33.113,25.085,38.258,12.21
2020-11-24 17:00,33.108,25.085,38.235,12.19
2020-11-24 18:00,33.128,25.095,38.283,12.22
2020-11-24 19:00,33.135,25.115,38.217,12.14
2020-11-24 20:00,33.156,25.154,38.128,12.02
2020-11-24 21:00,33.165,25.127,38.303,12.20
2020-11-24 22:00,33.146,25.167,38.017,11.91
2020-11-24 23:00,33.011,25.143,37.477,11.47
2020-11-25 00:00,33.107,25.157,37.876,11.80
2020-11-25 01:00,33.123,25.168,37.902,11.81
2020-11-25 02:00,33.055,25.144,37.686,11.65
2020-11-25 03:00,33.145,25.173,37.979,11.87
2020-11-25 04:00,33.067,25.170,37.616,11.56
2020-11-25 05:00,33.143,25.178,37.950,11.84
2020-11-25 06:00,33.152,25.186,37.950,11.83
2020-11-25 07:00,33.145,25.183,37.934,11.82
2020-11-25 08:00,33.101,25.182,37.724,11.64
2020-11-25 09:00,33.065,25.148,37.714,11.67
2020-11-25 10:00,33.080,25.125,37.903,11.86
2020-11-25 11:00,32.989,25.091,37.627,11.66
2020-11-25 12:00,,,,
2020-11-25 13:00,32.941,25.047,37.615,11.70
2020-11-25 14:00,33.062,25.113,37.876,11.85
2020-11-25 15:00,33.117,25.140,38.005,11.93
2020-11-25 16:00,33.144,25.158,38.052,11.95
2020-11-25 17:00,33.115,25.150,37.948,11.87
2020-11-25 18:00,33.079,25.132,37.866,11.82
2020-11-25 19:00,33.136,25.148,38.062,11.97
2020-11-25 20:00,33.118,25.151,37.961,11.88
2020-11-25 21:00,33.082,25.138,37.851,11.80
2020-11-25 22:00,33.042,25.120,37.746,11.73
2020-11-25 23:00,32.898,25.060,37.334,11.44
2020-11-26 00:00,32.812,25.008,37.174,11.36
2020-11-26 01:00,32.970,25.085,37.562,11.61
2020-11-26 02:00,32.992,25.095,37.621,11.65
2020-11-26 03:00,32.928,25.064,37.465,11.55
2020-11-26 04:00,32.887,25.046,37.350,11.47
2020-11-26 05:00,,,,
2020-11-26 06:00,33.109,25.136,37.988,11.92
2020-11-26 07:00,,,,
2020-11-26 08:00,33.196,25.155,38.317,12.18
2020-11-26 09:00,33.092,25.132,37.925,11.87
2020-11-26 10:00,32.946,25.078,37.483,11.55
2020-11-26 11:00,32.853,25.033,37.252,11.40
2020-11-26 12:00,32.749,24.977,37.020,11.26
2020-11-26 13:00,32.730,24.987,36.874,11.12
2020-11-26 14:00,32.721,25.010,36.712,10.95
2020-11-26 15:00,32.804,25.018,37.085,11.27
2020-11-26 16:00,32.782,24.995,37.089,11.30
2020-11-26 17:00,32.693,24.985,36.702,10.97
2020-11-26 18:00,32.858,25.044,37.221,11.36
2020-11-26 19:00,32.833,25.031,37.159,11.32
2020-11-26 20:00,32.817,25.019,37.143,11.32
2020-11-26 21:00,32.575,24.946,36.314,10.67
2020-11-26 22:00,32.402,24.806,36.167,10.70
2020-11-26 23:00,32.346,24.773,36.058,10.64
2020-11-27 00:00,32.170,24.618,35.970,10.74
2020-11-27 01:00,32.210,24.646,36.028,10.76
2020-11-27 02:00,32.495,24.826,36.529,11.00
2020-11-27 03:00,32.591,24.879,36.733,11.12
2020-11-27 04:00,32.615,24.909,36.704,11.06
2020-11-27 05:00,32.823,25.014,37.204,11.38
2020-11-27 06:00,33.084,25.124,37.926,11.88
2020-11-27 07:00,33.102,25.129,37.990,11.93
2020-11-27 08:00,33.015,25.109,37.663,11.67
2020-11-27 09:00,33.009,25.090,37.730,11.75
2020-11-27 10:00,32.655,24.938,36.753,11.07
2020-11-27 11:00,32.668,24.939,36.811,11.12
2020-11-27 12:00,32.692,24.949,36.881,11.17
2020-11-27 13:00,32.885,25.063,37.258,11.37
2020-11-27 14:00,32.756,24.995,36.964,11.19
2020-11-27 15:00,,,,
2020-11-27 16:00,32.887,25.090,37.133,11.23
2020-11-27 17:00,32.939,25.102,37.331,11.39
2020-11-27 18:00,32.910,25.068,37.356,11.45
2020-11-27 19:00,32.914,25.080,37.314,11.40
2020-11-27 20:00,33.041,25.122,37.726,11.71
2020-11-27 21:00,32.894,25.088,37.176,11.27
2020-11-27 22:00,32.714,24.966,36.903,11.17
2020-11-27 23:00,32.806,25.039,36.987,11.16
2020-11-28 00:00,32.687,24.965,36.777,11.06
2020-11-28 01:00,32.865,25.094,37.002,11.11
2020-11-28 02:00,32.813,25.036,37.040,11.21
2020-11-28 03:00,32.928,25.129,37.138,11.19
2020-11-28 04:00,32.942,25.134,37.179,11.22
2020-11-28 05:00,32.945,25.142,37.155,11.19
2020-11-28 06:00,32.878,25.087,37.106,11.21
2020-11-28 07:00,,,,
2020-11-28 08:00,32.852,25.073,37.043,11.17
2020-11-28 09:00,32.974,25.173,37.139,11.14
2020-11-28 10:00,32.981,25.179,37.146,11.14
2020-11-28 11:00,32.964,25.160,37.156,11.17
2020-11-28 12:00,33.006,25.177,37.281,11.26
2020-11-28 13:00,32.995,25.154,37.342,11.34
2020-11-28 14:00,32.996,25.166,37.289,11.28
2020-11-28 15:00,32.992,25.150,37.348,11.35
2020-11-28 16:00,32.993,25.144,37.386,11.39
2020-11-28 17:00,32.964,25.101,37.456,11.50
2020-11-28 18:00,33.012,25.131,37.542,11.54
2020-11-28 19:00,33.026,25.120,37.665,11.66
2020-11-28 20:00,33.047,25.127,37.732,11.71
2020-11-28 21:00,33.056,25.143,37.696,11.66
2020-11-28 22:00,33.061,25.138,37.747,11.71
2020-11-28 23:00,33.033,25.142,37.590,11.57
2020-11-29 00:00,32.986,25.100,37.570,11.60
2020-11-29 01:00,32.615,24.907,36.713,11.07
2020-11-29 02:00,32.420,24.851,36.025,10.52
2020-11-29 03:00,32.449,24.876,36.036,10.50
2020-11-29 04:00,32.498,24.905,36.139,10.56
2020-11-29 05:00,32.444,24.858,36.112,10.59
2020-11-29 06:00,32.438,24.811,36.319,10.83
2020-11-29 07:00,32.662,24.950,36.724,11.03
2020-11-29 08:00,32.902,25.065,37.329,11.43
2020-11-29 09:00,32.979,25.132,37.371,11.39
2020-11-29 10:00,32.876,25.060,37.230,11.35
2020-11-29 11:00,32.149,24.643,35.737,10.50
2020-11-29 12:00,32.300,24.782,35.772,10.37
2020-11-29 13:00,32.336,24.807,35.826,10.39
2020-11-29 14:00,32.337,24.803,35.854,10.42
2020-11-29 15:00,32.362,24.817,35.905,10.45
2020-11-29 16:00,32.435,24.843,36.138,10.63
2020-11-29 17:00,32.596,24.924,36.532,10.89
2020-11-29 18:00,32.387,24.809,36.072,10.61
2020-11-29 19:00,32.279,24.754,35.813,10.44
2020-11-29 20:00,32.292,24.749,35.906,10.53
2020-11-29 21:00,32.283,24.748,35.871,10.50
2020-11-29 22:00,32.305,24.761,35.910,10.52
2020-11-29 23:00,32.405,24.789,36.268,10.81
2020-11-30 00:00,32.324,24.797,35.823,10.40
2020-11-30 01:00,32.289,24.771,35.779,10.39
2020-11-30 02:00,32.236,24.731,35.717,10.38
2020-11-30 03:00,32.041,24.578,35.532,10.39
2020-11-30 04:00,,,,
2020-11-30 05:00,32.206,24.701,35.723,10.42
2020-11-30 06:00,32.238,24.726,35.755,10.42
2020-11-30 07:00,32.129,24.640,35.655,10.43
2020-11-30 08:00,32.270,24.747,35.804,10.44
2020-11-30 09:00,32.324,24.762,36.000,10.60
2020-11-30 10:00,32.379,24.778,36.198,10.76
2020-11-30 11:00,32.366,24.796,36.033,10.59
2020-11-30 12:00,32.158,24.675,35.613,10.35
2020-11-30 13:00,31.997,24.560,35.400,10.29
2020-11-30 14:00,32.429,24.781,36.426,10.96